User: anonymous   Login
Location: Trois-Rivi�res
(46.3500°N, 72.5500°W)
Time: 13:02:24
(UTC-05:00)
Language:

Cosmos 1544 - Orbit

View from above orbital plane
View from above orbital plane
View from above satellite
View from above satellite

Ground track
Ground track

The orbit data is extracted from the following two-line orbital elements,

1 14819U 84027A   18017.49631482 +.00000980 +00000-0 +36204-4 0  9994
2 14819 082.4839 172.2867 0014251 012.3746 347.7840 15.26424528848268
Epoch (UTC): 17 January 2018 11:54:41
Eccentricity: 0.0014251
inclination: 82.4839°
perigee height: 477 km
apogee height: 496 km
right ascension of ascending node: 172.2867°
argument of perigee: 12.3746°
revolutions per day: 15.26424528
mean anomaly at epoch: 347.7840°
orbit number at epoch: 84826

The dashed part of the orbit path shows where the satellite is in the earth's shadow,  

DLR